| time (UTC) | temp C | wind direction | speed KPH | gust KPH | rain 1hr cm | rain 24hr cm | rain mn cm | humidity % | barometer mb |
| 20260906113325 | 23 | 348 | 3.2 | 9.7 | 0.00 | 1.70 | 0.00 | 96 | 1013.0 |
| 20260906112315 | 23 | 335 | 4.8 | 12.9 | 0.00 | 1.70 | 0.00 | 96 | 1012.9 |
| 20260906111309 | 23 | 323 | 4.8 | 6.4 | 0.00 | 1.70 | 0.00 | 96 | 1012.6 |
| 20260906110310 | 23 | 334 | 3.2 | 4.8 | 0.00 | 1.70 | 0.00 | 96 | 1012.5 |
| 20260906105324 | 23 | 329 | 1.6 | 4.8 | 0.00 | 1.70 | 0.00 | 96 | 1012.4 |
| 20260906104327 | 23 | 344 | 1.6 | 3.2 | 0.00 | 1.70 | 0.00 | 96 | 1012.2 |
| 20260906103322 | 23 | 313 | 0.0 | 6.4 | 0.00 | 1.70 | 0.00 | 96 | 1012.1 |
| 20260906102328 | 23 | 319 | 3.2 | 6.4 | 0.00 | 1.70 | 0.00 | 96 | 1012.1 |
| 20260906101348 | 23 | 340 | 1.6 | 8.0 | 0.00 | 1.70 | 0.00 | 96 | 1012.1 |
| 20260906100348 | 23 | 355 | 4.8 | 6.4 | 0.00 | 1.70 | 0.00 | 96 | 1012.1 |
| 20260906095350 | 22 | 334 | 3.2 | 6.4 | 0.00 | 1.70 | 0.00 | 96 | 1012.1 |
| 20260906094324 | 22 | 342 | 1.6 | 6.4 | 0.00 | 1.70 | 0.00 | 96 | 1012.0 |
| 20260906093321 | 22 | 360 | 3.2 | 6.4 | 0.00 | 1.70 | 0.00 | 96 | 1012.0 |
| 20260906092322 | 22 | 348 | 3.2 | 4.8 | 0.00 | 1.70 | 0.00 | 95 | 1011.9 |
| 20260906091319 | 22 | 338 | 3.2 | 4.8 | 0.00 | 1.70 | 0.00 | 95 | 1011.8 |
| 20260906090315 | 22 | 177 | 1.6 | 1.6 | 0.00 | 1.70 | 0.00 | 95 | 1011.5 |
| 20260906085317 | 22 | 182 | 1.6 | 3.2 | 0.00 | 1.70 | 0.00 | 95 | 1011.6 |
| 20260906084312 | 23 | 296 | 1.6 | 3.2 | 0.00 | 1.70 | 0.00 | 95 | 1011.3 |
| 20260906083333 | 22 | 281 | 3.2 | 4.8 | 0.00 | 1.70 | 0.00 | 96 | 1011.3 |
| 20260906082322 | 22 | 261 | 3.2 | 6.4 | 0.00 | 1.70 | 0.00 | 95 | 1011.2 |
| 20260906081327 | 22 | 170 | 3.2 | 6.4 | 0.00 | 1.70 | 0.00 | 96 | 1011.2 |
| 20260906080324 | 22 | 205 | 1.6 | 4.8 | 0.00 | 1.70 | 0.00 | 95 | 1011.3 |
| 20260906075318 | 22 | 174 | 1.6 | 6.4 | 0.00 | 1.70 | 0.00 | 95 | 1011.2 |
| 20260906074322 | 22 | 166 | 4.8 | 8.0 | 0.00 | 1.70 | 0.00 | 95 | 1011.1 |
| 20260906073319 | 22 | 199 | 4.8 | 6.4 | 0.00 | 1.70 | 0.00 | 95 | 1011.1 |
| 20260906072313 | 22 | 208 | 3.2 | 6.4 | 0.00 | 1.70 | 0.00 | 95 | 1011.3 |
| 20260906071314 | 22 | 124 | 3.2 | 6.4 | 0.00 | 1.70 | 0.00 | 95 | 1011.4 |
| 20260906070309 | 22 | 182 | 1.6 | 4.8 | 0.00 | 1.70 | 0.00 | 95 | 1011.4 |
| 20260906065331 | 22 | 129 | 1.6 | 8.0 | 0.00 | 1.70 | 0.00 | 95 | 1011.4 |
| 20260906064335 | 22 | 209 | 0.0 | 3.2 | 0.00 | 1.70 | 0.00 | 95 | 1011.3 |
| 20260906063333 | 22 | 123 | 0.0 | 1.6 | 0.00 | 1.70 | 0.00 | 94 | 1011.3 |
| 20260906062333 | 22 | 123 | 1.6 | 4.8 | 0.00 | 1.70 | 0.00 | 94 | 1011.3 |
| 20260906061327 | 23 | 321 | 0.0 | 1.6 | 0.00 | 1.70 | 0.00 | 94 | 1011.4 |
| 20260906060322 | 23 | 321 | 0.0 | 4.8 | 0.00 | 1.70 | 0.00 | 94 | 1011.4 |
| 20260906055324 | 23 | 290 | 1.6 | 4.8 | 0.00 | 1.70 | 0.00 | 94 | 1011.5 |
| 20260906054321 | 23 | 332 | 3.2 | 4.8 | 0.00 | 1.70 | 0.00 | 94 | 1011.6 |
| 20260906053315 | 23 | 280 | 1.6 | 3.2 | 0.00 | 1.70 | 0.00 | 94 | 1011.6 |
| 20260906052315 | 23 | 281 | 0.0 | 4.8 | 0.00 | 1.70 | 0.00 | 94 | 1011.8 |
| 20260906051327 | 23 | 261 | 3.2 | 6.4 | 0.00 | 1.70 | 0.00 | 94 | 1012.0 |
| 20260906050327 | 23 | 271 | 1.6 | 4.8 | 0.00 | 1.70 | 0.00 | 94 | 1012.0 |
| 20260906045322 | 23 | 286 | 1.6 | 3.2 | 0.00 | 1.70 | 0.00 | 94 | 1012.0 |
| 20260906044318 | 23 | 314 | 1.6 | 3.2 | 0.00 | 1.70 | 0.00 | 94 | 1012.3 |
| 20260906043318 | 23 | 317 | 1.6 | 3.2 | 0.00 | 1.70 | 0.00 | 95 | 1012.4 |
| 20260906042315 | 23 | 360 | 0.0 | 1.6 | 0.00 | 1.70 | 0.00 | 95 | 1012.3 |
| 20260906041319 | 23 | 69 | 0.0 | 4.8 | 0.00 | 1.70 | 0.00 | 95 | 1012.4 |
| 20260906040309 | 23 | 74 | 0.0 | 3.2 | 0.00 | 1.70 | 0.00 | 94 | 1012.4 |
| 20260906035333 | 23 | 325 | 1.6 | 3.2 | 0.00 | 1.70 | 0.43 | 94 | 1012.4 |
| 20260906034327 | 23 | 308 | 0.0 | 3.2 | 0.00 | 1.70 | 0.43 | 94 | 1012.4 |
| 20260906033328 | 23 | 324 | 1.6 | 3.2 | 0.00 | 1.70 | 0.43 | 94 | 1012.6 |
| 20260906032326 | 23 | 331 | 1.6 | 3.2 | 0.00 | 1.70 | 0.43 | 94 | 1012.5 |
| 20260906031322 | 23 | 223 | 1.6 | 4.8 | 0.00 | 1.70 | 0.43 | 94 | 1012.6 |
| 20260906030326 | 23 | 181 | 3.2 | 4.8 | 0.00 | 1.70 | 0.43 | 94 | 1012.5 |
| 20260906025319 | 23 | 244 | 3.2 | 4.8 | 0.00 | 1.70 | 0.43 | 94 | 1012.5 |
| 20260906024318 | 23 | 258 | 3.2 | 4.8 | 0.00 | 1.70 | 0.43 | 94 | 1012.6 |
| 20260906023311 | 23 | 244 | 3.2 | 4.8 | 0.00 | 1.70 | 0.43 | 94 | 1012.6 |
| 20260906022332 | 23 | 280 | 3.2 | 4.8 | 0.00 | 1.70 | 0.43 | 94 | 1012.7 |
| 20260906021327 | 23 | 305 | 0.0 | 1.6 | 0.00 | 1.70 | 0.43 | 94 | 1012.6 |
| 20260906020314 | 23 | 340 | 1.6 | 3.2 | 0.00 | 1.70 | 0.43 | 94 | 1012.3 |
| 20260906015310 | 23 | 269 | 1.6 | 4.8 | 0.00 | 1.70 | 0.43 | 94 | 1012.3 |
| 20260906014332 | 24 | 242 | 1.6 | 4.8 | 0.00 | 1.70 | 0.43 | 94 | 1012.4 |
| 20260906013309 | 24 | 265 | 3.2 | 4.8 | 0.00 | 1.70 | 0.43 | 94 | 1012.3 |
| 20260906012326 | 24 | 208 | 4.8 | 8.0 | 0.00 | 1.70 | 0.43 | 94 | 1012.3 |
| 20260906011329 | 24 | 273 | 3.2 | 8.0 | 0.00 | 1.70 | 0.43 | 94 | 1012.3 |
| 20260906010325 | 24 | 123 | 4.8 | 8.0 | 0.00 | 1.70 | 0.43 | 94 | 1012.6 |
| 20260906005350 | 24 | 193 | 3.2 | 6.4 | 0.00 | 1.70 | 0.43 | 94 | 1012.5 |
| 20260906004326 | 24 | 144 | 3.2 | 6.4 | 0.00 | 1.70 | 0.43 | 94 | 1012.5 |
| 20260906003350 | 24 | 71 | 1.6 | 8.0 | 0.00 | 1.70 | 0.43 | 94 | 1012.4 |
| 20260906002327 | 24 | 124 | 3.2 | 8.0 | 0.00 | 1.70 | 0.43 | 94 | 1012.1 |
| 20260906001332 | 24 | 299 | 1.6 | 6.4 | 0.00 | 1.70 | 0.43 | 93 | 1011.3 |
| 20260906000323 | 24 | 258 | 4.8 | 9.7 | 0.00 | 1.70 | 0.43 | 93 | 1011.1 |
| 20260905235318 | 24 | 277 | 3.2 | 11.3 | 0.00 | 1.70 | 0.43 | 93 | 1010.9 |
| 20260905234318 | 24 | 271 | 6.4 | 11.3 | 0.00 | 1.70 | 0.43 | 94 | 1010.8 |
| 20260905233315 | 24 | 244 | 4.8 | 6.4 | 0.00 | 1.70 | 0.43 | 93 | 1010.8 |
| 20260905232312 | 24 | 269 | 3.2 | 6.4 | 0.00 | 1.70 | 0.43 | 94 | 1010.9 |
| 20260905231317 | 24 | 93 | 0.0 | 3.2 | 0.00 | 1.70 | 0.43 | 94 | 1010.9 |
| 20260905230312 | 24 | 261 | 1.6 | 4.8 | 0.10 | 1.70 | 0.43 | 93 | 1010.8 |
| 20260905225334 | 24 | 282 | 3.2 | 8.0 | 0.20 | 1.70 | 0.43 | 93 | 1010.4 |
| 20260905224328 | 25 | 282 | 4.8 | 9.7 | 0.30 | 1.70 | 0.43 | 94 | 1010.3 |
| 20260905223331 | 25 | 284 | 4.8 | 8.0 | 0.30 | 1.70 | 0.43 | 94 | 1010.0 |
| 20260905222327 | 25 | 271 | 3.2 | 4.8 | 0.30 | 1.70 | 0.43 | 94 | 1009.4 |
| 20260905221323 | 24 | 284 | 1.6 | 4.8 | 0.30 | 1.70 | 0.43 | 93 | 1009.5 |
| 20260905220327 | 24 | 269 | 1.6 | 9.7 | 0.61 | 1.60 | 0.41 | 93 | 1010.2 |
| 20260905215320 | 24 | 236 | 8.0 | 20.9 | 1.09 | 1.50 | 0.38 | 93 | 1010.9 |
| 20260905214343 | 24 | 184 | 3.2 | 17.7 | 1.19 | 1.40 | 0.36 | 92 | 1010.0 |
| 20260905213315 | 24 | 53 | 8.0 | 19.3 | 1.40 | 1.40 | 0.36 | 91 | 1010.5 |
| 20260905212315 | 24 | 95 | 4.8 | 14.5 | 1.40 | 1.40 | 0.36 | 90 | 1011.5 |
| 20260905211355 | 25 | 269 | 3.2 | 19.3 | 1.40 | 1.40 | 0.36 | 89 | 1012.1 |
| 20260905210323 | 25 | 285 | 14.5 | 38.6 | 0.89 | 0.89 | 0.23 | 89 | 1012.6 |
| 20260905205313 | 26 | 243 | 22.5 | 51.5 | 0.41 | 0.41 | 0.10 | 85 | 1011.0 |
| 20260905204312 | 30 | 273 | 29.0 | 54.7 | 0.10 | 0.10 | 0.03 | 70 | 1010.8 |
| 20260905203325 | 36 | 236 | 9.7 | 19.3 | 0.00 | 0.00 | 0.00 | 56 | 1010.5 |
| 20260905202327 | 37 | 256 | 3.2 | 4.8 | 0.00 | 0.00 | 0.00 | 54 | 1009.6 |
| 20260905201323 | 37 | 259 | 3.2 | 6.4 | 0.00 | 0.00 | 0.00 | 51 | 1009.4 |
| 20260905200321 | 38 | 236 | 1.6 | 6.4 | 0.00 | 0.00 | 0.00 | 51 | 1009.4 |
| 20260905195320 | 38 | 300 | 3.2 | 11.3 | 0.00 | 0.00 | 0.00 | 50 | 1009.5 |
| 20260905194342 | 38 | 321 | 4.8 | 14.5 | 0.00 | 0.00 | 0.00 | 51 | 1009.7 |
| 20260905193315 | 38 | 192 | 4.8 | 12.9 | 0.00 | 0.00 | 0.00 | 47 | 1009.8 |
| 20260905192337 | 39 | 243 | 3.2 | 8.0 | 0.00 | 0.00 | 0.00 | 49 | 1009.7 |
| 20260905191310 | 39 | 248 | 4.8 | 12.9 | 0.00 | 0.00 | 0.00 | 48 | 1009.6 |
| 20260905190330 | 39 | 271 | 8.0 | 11.3 | 0.00 | 0.00 | 0.00 | 50 | 1009.9 |
| 20260905185320 | 38 | 244 | 8.0 | 16.1 | 0.00 | 0.00 | 0.00 | 50 | 1009.9 |
| 20260905184318 | 38 | 5 | 1.6 | 8.0 | 0.00 | 0.00 | 0.00 | 54 | 1010.1 |
| 20260905183323 | 38 | 53 | 4.8 | 6.4 | 0.00 | 0.00 | 0.00 | 53 | 1010.3 |
| 20260905182319 | 37 | 319 | 4.8 | 8.0 | 0.00 | 0.00 | 0.00 | 54 | 1010.6 |
| 20260905181312 | 37 | 326 | 3.2 | 8.0 | 0.00 | 0.00 | 0.00 | 55 | 1010.8 |
| 20260905180329 | 38 | 315 | 4.8 | 8.0 | 0.00 | 0.00 | 0.00 | 54 | 1010.9 |
| 20260905175320 | 37 | 338 | 4.8 | 12.9 | 0.00 | 0.00 | 0.00 | 55 | 1011.3 |
| 20260905174311 | 38 | 172 | 4.8 | 14.5 | 0.00 | 0.00 | 0.00 | 54 | 1011.4 |
| 20260905173327 | 37 | 286 | 6.4 | 11.3 | 0.00 | 0.00 | 0.00 | 56 | 1011.7 |
| 20260905172325 | 37 | 225 | 3.2 | 12.9 | 0.00 | 0.00 | 0.00 | 55 | 1011.9 |
| 20260905171317 | 37 | 227 | 8.0 | 12.9 | 0.00 | 0.00 | 0.00 | 54 | 1012.0 |
| 20260905170334 | 37 | 355 | 3.2 | 6.4 | 0.00 | 0.00 | 0.00 | 56 | 1012.1 |
| 20260905165341 | 37 | 252 | 4.8 | 11.3 | 0.00 | 0.00 | 0.00 | 57 | 1012.2 |
| 20260905164339 | 37 | 231 | 8.0 | 11.3 | 0.00 | 0.00 | 0.00 | 60 | 1012.3 |
| 20260905163334 | 36 | 284 | 4.8 | 12.9 | 0.00 | 0.00 | 0.00 | 59 | 1012.5 |
| 20260905162309 | 36 | 330 | 3.2 | 9.7 | 0.00 | 0.00 | 0.00 | 60 | 1012.6 |
| 20260905161324 | 36 | 360 | 4.8 | 12.9 | 0.00 | 0.00 | 0.00 | 61 | 1012.8 |
| 20260905160335 | 36 | 242 | 8.0 | 11.3 | 0.00 | 0.00 | 0.00 | 63 | 1012.9 |
| 20260905155310 | 35 | 275 | 1.6 | 12.9 | 0.00 | 0.00 | 0.00 | 64 | 1013.2 |
| 20260905154331 | 35 | 207 | 4.8 | 11.3 | 0.00 | 0.00 | 0.00 | 65 | 1013.3 |
| 20260905153343 | 35 | 261 | 8.0 | 14.5 | 0.00 | 0.00 | 0.00 | 65 | 1013.3 |
| 20260905152322 | 35 | 245 | 3.2 | 12.9 | 0.00 | 0.00 | 0.00 | 67 | 1013.3 |
| 20260905151311 | 35 | 253 | 6.4 | 11.3 | 0.00 | 0.00 | 0.00 | 67 | 1013.3 |
| 20260905150327 | 34 | 288 | 6.4 | 12.9 | 0.00 | 0.00 | 0.00 | 68 | 1013.2 |
| 20260905145317 | 33 | 254 | 3.2 | 12.9 | 0.00 | 0.00 | 0.00 | 70 | 1013.2 |
| 20260905144308 | 33 | 180 | 6.4 | 14.5 | 0.00 | 0.00 | 0.00 | 70 | 1013.1 |
| 20260905143324 | 33 | 249 | 8.0 | 14.5 | 0.00 | 0.00 | 0.00 | 73 | 1013.1 |
| 20260905142342 | 32 | 216 | 6.4 | 12.9 | 0.00 | 0.00 | 0.00 | 74 | 1013.1 |
| 20260905141339 | 32 | 263 | 4.8 | 14.5 | 0.00 | 0.00 | 0.00 | 75 | 1013.2 |
| 20260905140309 | 32 | 262 | 9.7 | 16.1 | 0.00 | 0.00 | 0.00 | 75 | 1013.3 |
| 20260905135325 | 31 | 173 | 8.0 | 14.5 | 0.00 | 0.00 | 0.00 | 77 | 1013.2 |
| 20260905134335 | 31 | 267 | 4.8 | 17.7 | 0.00 | 0.00 | 0.00 | 78 | 1013.4 |
| 20260905133311 | 30 | 265 | 8.0 | 14.5 | 0.00 | 0.00 | 0.00 | 79 | 1013.5 |
| 20260905132349 | 30 | 199 | 4.8 | 11.3 | 0.00 | 0.00 | 0.00 | 82 | 1013.5 |
| 20260905131338 | 30 | 244 | 6.4 | 14.5 | 0.00 | 0.00 | 0.00 | 81 | 1013.5 |
| 20260905130312 | 29 | 215 | 6.4 | 19.3 | 0.00 | 0.00 | 0.00 | 83 | 1013.5 |
| 20260905125329 | 29 | 209 | 8.0 | 16.1 | 0.00 | 0.00 | 0.00 | 84 | 1013.6 |
| 20260905124318 | 28 | 231 | 8.0 | 19.3 | 0.00 | 0.00 | 0.00 | 85 | 1013.6 |
| 20260905123335 | 28 | 203 | 6.4 | 12.9 | 0.00 | 0.00 | 0.00 | 87 | 1013.6 |
| 20260905122308 | 28 | 220 | 4.8 | 12.9 | 0.00 | 0.00 | 0.00 | 87 | 1013.5 |
| 20260905121348 | 27 | 232 | 4.8 | 14.5 | 0.00 | 0.00 | 0.00 | 88 | 1013.5 |
| 20260905120321 | 27 | 249 | 8.0 | 12.9 | 0.00 | 0.00 | 0.00 | 88 | 1013.4 |
| 20260905115322 | 27 | 289 | 8.0 | 14.5 | 0.00 | 0.00 | 0.00 | 89 | 1013.3 |
| 20260905114316 | 27 | 244 | 6.4 | 12.9 | 0.00 | 0.00 | 0.00 | 89 | 1013.3 |